Theta_e
330 331 331 331 332 333 335 337 336 336 334 323 315 313 311 313 313 312 313 313 313 312 312 314 317 319 322 323 322 322 321 321 323 324 323 322 318 316 315 317 320 320 321 323 322 323 322 321 320 319 321 325 326 327 328 328 327 328 329 329 329 329 328 328 328 328 328 327 326 325 322 321 323 326 326 326 326 326 327 327 327 327 327 327 327
333 335 335 335 336 335 336 337 336 336 332 321 315 313 311 312 313 313 313 313 313 313 316 319 318 319 322 322 322 322 320 319 321 322 320 317 314 312 312 314 315 317 319 321 322 323 323 322 321 321 322 325 326 326 326 327 328 328 328 328 328 328 328 328 329 329 328 328 328 327 325 322 322 323 325 325 325 325 326 326 327 327 327 327 327
334 335 335 335 336 336 337 337 337 336 332 321 315 314 312 312 313 313 313 313 313 317 322 324 321 320 321 321 321 321 321 321 318 315 314 312 310 310 315 319 321 321 322 322 322 322 322 322 322 322 323 323 324 324 325 326 326 327 327 328 328 328 329 329 329 329 329 328 328 327 325 324 322 322 323 322 323 324 326 326 326 327 327 327 327
334 335 334 335 336 337 337 337 337 335 332 323 318 319 316 313 313 313 313 313 316 321 325 325 323 322 322 322 322 319 321 319 313 310 309 308 310 313 319 322 322 322 322 322 322 321 320 321 321 322 322 323 323 323 322 323 324 325 325 326 327 328 328 329 329 328 328 328 328 327 326 325 325 324 324 322 320 322 325 326 326 327 327 327 327
332 334 333 334 335 336 336 337 336 334 333 326 321 325 322 315 313 312 312 315 317 321 323 322 322 322 321 323 323 321 321 315 309 311 311 309 310 313 318 321 321 321 321 320 320 320 320 319 319 320 321 321 322 321 322 322 323 324 324 324 326 328 328 328 328 328 328 328 327 327 326 326 326 325 325 324 322 322 324 323 324 325 326 327 327
331 333 333 332 332 334 335 336 333 330 329 327 324 327 326 318 314 311 313 316 317 319 319 319 319 318 317 319 319 316 315 312 309 311 310 308 309 310 313 317 318 319 317 314 315 318 320 318 318 318 319 321 321 321 321 321 322 323 323 324 325 326 327 327 328 327 327 328 327 327 326 326 326 326 325 324 323 324 324 324 323 323 325 325 326
331 332 330 329 329 331 333 332 329 324 325 328 329 329 328 322 315 311 313 315 316 317 316 315 314 314 311 312 311 309 310 311 311 310 308 308 308 308 309 310 311 313 312 309 310 315 319 319 317 316 316 318 318 320 321 321 321 321 321 323 324 325 326 326 326 326 326 327 327 327 327 326 326 327 326 325 324 324 324 325 324 323 324 325 325
329 329 327 327 327 328 330 330 328 326 326 329 331 331 330 325 317 312 313 314 315 315 314 312 311 310 309 309 308 309 311 311 310 309 308 308 307 307 308 308 307 308 307 307 307 311 316 317 315 315 314 311 310 313 316 315 316 320 322 322 323 324 324 324 324 325 325 325 325 325 325 325 325 326 327 326 324 324 324 324 324 323 323 323 323
329 329 328 327 326 326 327 328 329 331 331 331 332 333 332 328 322 315 313 313 314 314 313 311 311 309 309 310 310 312 313 311 310 309 308 308 308 308 307 307 308 307 307 307 306 307 311 314 315 314 311 308 306 307 308 306 308 315 318 319 322 323 323 323 323 323 324 323 323 322 322 323 324 325 325 326 326 325 325 325 324 323 322 321 321
329 328 329 329 328 327 326 325 329 334 335 332 332 333 333 331 327 319 313 312 313 314 312 311 310 310 311 313 312 314 314 311 309 309 308 309 309 308 308 307 308 307 307 307 306 306 307 309 311 311 308 307 306 306 306 305 306 307 308 311 316 319 321 322 321 321 323 323 321 321 322 322 323 324 324 325 325 323 324 325 323 322 322 323 322
329 329 329 329 329 328 327 326 328 333 335 334 332 332 332 332 329 322 315 312 313 314 313 311 310 310 313 315 314 314 313 311 309 309 309 309 309 309 309 308 308 308 307 307 307 307 306 307 307 307 307 307 307 306 307 307 306 306 306 306 308 310 314 316 313 313 316 320 320 320 320 321 321 323 323 322 322 322 323 323 321 318 319 323 322
329 329 329 329 328 327 327 326 328 332 334 335 333 332 332 332 330 326 319 313 312 313 313 312 311 311 315 317 315 314 313 309 309 309 309 309 310 310 309 309 308 308 308 308 307 307 307 307 307 307 307 307 307 307 307 307 307 307 307 307 306 306 307 308 307 306 308 314 318 319 320 320 320 321 321 322 322 320 318 318 319 317 317 319 320
327 329 328 327 326 326 326 326 326 330 333 334 334 333 332 333 332 330 324 317 313 312 313 312 311 311 316 318 316 316 313 309 309 310 309 310 310 310 310 310 310 309 308 308 308 308 308 308 308 307 307 307 307 307 307 307 307 307 307 307 307 307 306 306 306 306 305 308 311 314 315 316 318 319 318 317 316 313 308 309 314 317 316 317 317
325 325 326 326 326 326 327 326 325 327 329 331 332 333 333 332 333 332 329 323 317 313 312 312 311 312 316 318 317 316 313 311 310 309 309 310 310 310 310 311 312 311 310 308 308 308 308 308 308 308 307 307 307 307 307 307 307 306 307 306 306 307 307 306 306 306 306 305 306 307 307 308 310 311 309 309 308 305 305 305 308 312 313 314 314
322 322 323 324 326 328 329 328 327 326 327 329 330 333 333 332 332 331 329 327 324 318 313 311 311 312 316 319 318 316 314 312 312 311 310 310 311 311 311 311 312 313 312 311 310 309 308 308 308 308 308 307 307 307 307 307 307 306 306 306 306 306 306 306 306 305 305 305 305 305 305 304 305 305 304 305 305 304 304 305 305 307 308 309 311
323 323 321 322 325 329 330 329 329 329 328 329 330 331 330 327 326 327 327 328 328 324 319 316 312 313 316 319 319 318 314 313 315 314 312 311 313 313 312 313 313 313 313 313 313 311 310 309 309 308 308 308 308 308 307 307 307 307 306 306 306 306 306 306 305 305 304 304 304 304 304 304 303 303 303 303 303 303 303 304 304 305 306 307 310
326 325 323 323 325 329 329 328 330 330 330 330 329 328 326 323 322 325 326 327 328 325 322 320 317 316 318 319 319 319 315 314 317 318 316 315 317 317 317 316 315 314 314 314 314 313 311 311 310 310 309 309 308 308 308 307 307 307 307 306 306 306 306 306 305 305 304 304 304 304 304 303 303 303 303 303 303 303 303 303 304 304 304 305 306
327 328 327 326 326 327 327 327 328 329 329 329 329 328 328 326 325 326 325 326 327 325 320 319 319 320 321 320 319 320 318 314 317 319 319 318 319 319 320 319 317 316 315 314 314 313 313 312 311 311 311 310 309 309 308 308 308 307 307 307 306 306 306 306 305 305 305 304 304 304 304 303 303 303 303 303 303 303 302 303 303 304 304 303 303
327 327 326 326 326 326 326 326 326 327 328 328 328 328 328 327 328 327 326 325 326 325 320 318 321 323 323 322 321 320 320 317 316 319 320 319 319 320 320 320 319 318 316 316 315 315 315 314 313 313 312 312 311 310 309 309 308 308 308 307 307 307 306 306 306 306 305 305 305 305 304 304 304 304 304 304 303 303 303 303 303 303 303 303 303
326 326 326 326 326 326 326 326 326 326 326 327 327 327 327 327 328 328 327 325 325 325 322 318 321 322 322 323 322 321 321 320 318 319 319 319 319 320 320 320 320 319 318 318 318 318 317 317 316 316 315 314 313 313 312 311 309 309 309 308 308 308 307 307 307 306 306 306 305 305 305 305 305 305 305 304 304 304 304 304 304 304 304 305 304
324 324 325 325 325 325 325 325 327 326 326 327 326 327 327 327 327 326 326 326 325 325 322 319 320 320 320 321 323 322 322 322 321 320 320 319 320 320 320 320 320 320 320 320 320 320 319 319 319 319 318 317 316 315 315 314 313 311 310 309 309 309 309 308 308 307 307 306 306 306 306 306 305 305 305 306 306 306 306 306 306 305 305 306 305
324 323 323 323 323 323 323 324 325 325 326 326 326 326 326 326 326 325 325 325 324 323 321 320 320 320 319 320 322 323 322 322 322 321 321 320 320 320 321 320 319 319 320 320 320 320 320 320 320 320 320 319 318 318 318 317 317 315 313 311 310 310 310 309 308 308 308 308 307 307 307 306 306 306 306 306 306 306 306 306 306 306 305 305 305
323 323 323 323 323 323 322 322 322 322 323 324 324 325 325 325 326 325 325 324 323 321 320 321 322 320 319 320 322 324 324 324 323 323 322 321 321 321 321 319 318 317 318 319 320 321 321 320 321 320 320 320 320 319 319 319 319 318 317 315 313 312 312 311 310 309 309 309 308 308 308 307 307 306 306 306 306 306 306 306 306 306 305 305 306
320 320 320 320 321 321 322 322 321 322 321 321 322 322 323 324 324 325 325 324 324 323 321 322 322 321 320 321 323 324 324 323 322 320 320 322 321 321 320 319 318 317 318 319 320 321 321 321 320 319 319 319 320 320 320 320 320 320 319 318 316 315 314 313 312 311 310 311 309 308 309 308 307 306 306 306 306 306 306 306 306 305 305 305 305
317 318 318 317 317 317 318 320 321 321 321 321 321 322 322 322 322 323 324 324 324 323 323 323 323 322 322 323 323 323 322 322 320 319 320 322 321 320 320 320 319 318 318 318 319 320 320 321 320 318 318 319 320 320 320 319 320 320 320 319 318 317 316 315 314 313 312 312 311 310 310 309 308 307 306 306 305 306 305 305 305 304 304 304 304
316 317 317 317 316 315 315 315 316 316 317 317 319 320 321 321 321 322 323 322 322 322 323 323 323 323 323 322 321 321 320 320 320 320 321 322 322 321 320 320 319 318 317 317 317 318 318 318 317 317 317 318 319 319 319 318 319 318 319 320 319 318 317 316 316 315 313 313 312 312 311 311 309 308 307 306 305 305 305 304 304 304 304 304 304
315 315 315 315 315 315 315 314 314 313 313 312 312 314 317 319 320 320 320 320 319 320 321 322 322 322 322 322 322 321 322 322 322 322 321 321 321 321 320 319 319 319 319 318 318 318 318 317 317 318 318 318 318 317 317 317 318 317 317 319 319 319 318 318 317 316 315 314 313 312 312 312 310 308 307 306 306 305 305 304 304 303 303 303 304
315 314 314 314 313 313 314 314 314 313 313 312 311 310 311 314 315 316 316 315 314 315 317 317 317 317 317 317 318 318 318 318 319 319 319 319 319 319 319 319 319 319 319 319 319 319 319 318 318 319 319 319 318 317 316 317 319 317 316 318 319 319 318 318 317 317 316 315 314 313 312 312 310 309 308 308 307 307 305 304 304 303 303 303 303
315 315 314 313 313 312 312 312 312 312 312 312 312 311 310 310 309 309 311 311 310 310 311 312 313 313 313 312 312 313 311 311 313 315 315 315 315 315 316 317 317 317 317 318 319 319 320 320 319 320 320 319 319 318 318 318 319 319 317 318 319 319 318 318 318 317 316 315 314 313 313 312 312 311 310 309 309 308 306 306 304 303 303 303 303
316 315 315 314 313 312 312 311 311 311 311 311 311 310 310 310 309 308 308 308 308 308 307 308 310 310 309 308 309 309 309 308 310 311 312 312 311 311 312 313 314 314 314 315 316 316 317 318 319 320 320 320 318 318 318 318 318 319 318 318 319 319 318 318 318 317 316 316 315 314 314 313 312 311 310 310 310 308 307 306 305 304 304 303 303
315 315 315 314 313 312 312 311 311 311 310 310 310 310 310 309 309 309 309 308 308 307 305 307 309 308 307 308 308 308 309 309 309 310 310 310 310 310 311 311 312 312 313 314 315 315 314 314 315 317 319 319 319 318 319 319 319 319 318 317 318 319 318 317 317 317 317 316 315 315 315 314 313 312 310 310 309 308 307 306 305 304 304 304 304
314 315 314 314 313 312 311 311 311 310 310 310 309 309 309 309 308 306 306 306 305 304 304 305 307 307 308 309 309 309 309 308 309 309 309 310 310 311 311 311 311 312 313 314 314 315 314 313 313 313 314 316 316 315 317 319 320 320 320 319 318 319 318 317 317 317 317 316 315 315 314 314 313 312 311 310 308 307 306 305 305 305 304 304 302
313 314 313 313 312 312 311 310 310 309 309 309 309 309 309 308 307 306 306 306 305 306 306 306 306 306 307 308 307 307 308 308 308 309 308 308 309 310 310 311 311 311 312 313 313 314 314 314 314 313 313 314 314 313 314 315 316 317 319 319 319 319 318 317 316 316 316 316 315 315 314 313 312 311 310 309 307 306 306 305 304 304 303 302 300
312 313 313 312 311 311 310 310 309 309 309 308 308 309 308 307 307 308 308 307 307 307 308 307 307 307 307 307 307 307 308 308 308 308 308 307 307 306 306 307 307 306 307 308 309 311 312 313 314 314 314 314 315 315 314 313 311 312 316 319 319 318 317 316 316 316 316 315 314 314 313 312 311 310 309 308 306 305 305 304 303 302 301 299 298
311 311 311 310 310 311 310 310 309 309 309 308 307 308 308 307 308 308 308 307 307 307 308 307 307 308 308 308 307 308 308 309 309 309 308 308 307 306 306 306 306 305 304 303 304 305 307 310 313 314 315 315 315 315 314 313 313 314 316 317 318 319 317 315 315 315 315 314 313 312 312 311 310 309 308 307 305 304 304 303 302 300 299 298 297
310 310 310 310 309 309 309 309 309 309 308 307 307 307 308 308 308 308 307 307 307 307 307 307 307 307 307 307 307 308 308 309 309 309 308 308 307 307 307 307 307 307 307 306 305 305 305 307 310 311 312 313 314 314 314 313 314 316 316 316 317 318 317 315 314 314 314 313 312 311 311 310 309 308 307 306 306 306 305 303 301 299 298 298 298
308 308 308 308 308 308 308 308 308 308 307 307 306 306 307 307 307 307 307 307 307 307 306 306 307 307 307 307 307 307 307 308 308 308 309 309 308 308 308 308 308 307 308 308 308 309 309 308 309 310 311 312 312 313 313 313 314 316 316 316 316 316 316 315 314 313 312 311 310 310 309 309 308 307 307 306 306 307 304 301 299 298 298 298 299
307 307 307 306 307 307 307 307 307 306 306 306 306 306 307 307 307 306 306 307 307 307 307 307 306 306 306 306 307 307 307 307 307 307 307 308 308 308 308 308 308 308 308 309 309 310 311 310 310 311 311 312 312 312 313 313 313 314 315 316 316 316 315 313 313 312 311 310 310 310 309 309 308 306 305 304 304 303 301 298 297 297 298 298 298
305 305 305 305 305 306 306 306 307 306 305 304 305 306 306 306 306 306 306 306 306 306 306 306 305 305 306 306 306 306 306 305 305 305 305 306 306 307 307 307 308 307 308 308 309 309 310 310 310 310 311 312 312 312 313 313 313 314 314 315 315 315 314 312 311 311 311 311 310 309 308 307 306 304 303 302 301 299 297 297 297 298 298 298 298
304 304 304 304 304 304 304 305 305 305 304 304 304 304 305 305 305 306 306 306 306 306 306 306 306 306 306 306 306 306 305 306 306 306 306 306 307 308 308 308 308 308 309 309 309 309 310 310 310 311 311 311 311 312 313 313 314 313 313 314 314 314 313 312 311 310 311 310 308 307 305 304 303 302 302 301 299 297 297 297 298 298 298 297 297
304 304 304 303 303 303 303 303 304 304 303 303 303 303 304 304 304 305 305 305 306 306 306 307 307 306 307 306 306 306 306 307 307 307 307 307 307 309 309 309 309 309 310 310 310 309 310 310 310 311 310 311 311 311 312 313 313 313 313 313 313 312 312 311 310 310 308 307 306 305 304 303 303 303 302 300 297 296 297 297 297 297 297 296 296
303 303 303 303 303 303 303 303 303 303 303 303 303 303 303 303 304 304 304 304 304 305 305 305 305 305 305 305 306 306 306 306 306 306 306 306 306 307 308 308 308 309 310 310 309 309 309 310 310 310 310 311 310 311 311 312 312 312 312 312 311 311 311 310 309 307 306 305 304 303 303 303 303 302 300 297 296 296 296 296 296 295 295 295 294
302 302 302 302 303 303 303 303 302 302 302 302 302 302 303 303 303 303 304 304 304 305 304 304 304 304 305 305 305 305 305 305 305 306 306 306 307 307 307 307 308 309 309 309 309 309 309 309 310 310 310 310 310 310 311 311 311 311 310 310 309 309 309 309 307 306 304 303 303 304 304 302 300 298 296 295 294 295 295 295 294 294 294 294 294
301 301 301 301 301 302 302 302 302 302 302 302 302 302 302 302 303 303 303 303 304 304 304 304 304 304 304 305 305 305 305 306 307 307 307 308 308 307 307 308 308 308 308 308 308 308 308 308 309 309 309 309 310 310 309 308 308 308 307 307 307 307 306 306 305 304 304 304 304 303 301 298 295 294 294 294 294 294 294 294 294 294 293 293 293
300 300 300 300 300 301 301 301 301 302 302 302 302 302 302 302 303 303 303 303 303 304 304 304 304 304 304 305 305 305 305 306 306 306 306 306 306 306 306 307 307 308 308 307 307 307 308 308 309 309 308 308 308 307 306 306 306 305 305 305 305 305 304 304 305 305 305 303 301 298 295 294 293 293 293 293 294 294 294 294 293 293 293 292 292
299 299 299 300 300 300 300 301 301 301 301 301 302 302 302 302 302 302 303 303 303 303 303 304 304 304 304 304 304 305 305 305 305 305 304 304 304 305 305 305 306 307 308 308 308 308 308 309 309 308 307 307 307 305 304 304 304 304 304 304 303 304 304 303 303 302 300 297 295 293 293 293 293 293 293 293 294 294 293 293 293 292 292 292 292
299 299 300 299 299 300 300 300 301 301 301 301 302 302 302 302 302 302 302 302 303 303 303 303 303 303 304 304 304 304 304 303 303 303 304 304 304 305 305 305 306 307 307 308 308 308 308 308 308 307 307 306 305 303 303 303 304 304 303 302 302 301 300 299 297 296 294 293 293 292 292 292 293 293 293 293 293 293 293 293 292 292 292 292 291
299 299 299 299 299 300 300 300 300 300 301 301 301 301 301 301 301 301 301 302 302 303 303 303 303 303 303 303 304 304 303 303 303 303 303 304 304 304 305 305 305 306 306 307 307 307 307 307 307 307 306 305 303 302 302 301 302 301 299 298 297 297 295 294 294 293 293 292 292 292 292 293 293 293 293 293 293 292 292 292 292 291 291 290 290
300 299 299 299 299 300 300 300 300 300 300 300 300 300 301 301 301 301 301 302 302 302 302 302 303 303 303 304 304 304 303 303 303 302 302 302 303 303 303 304 304 305 305 305 306 306 306 306 306 305 305 304 303 301 300 299 298 296 295 294 294 293 292 292 292 292 292 292 292 292 293 293 293 293 292 292 291 291 291 291 290 290 290 289 289
299 299 299 300 300 300 300 299 300 300 300 300 301 301 301 301 301 301 302 302 302 302 303 303 303 304 304 304 304 303 302 302 302 302 302 302 302 303 303 304 304 304 305 305 305 305 305 305 305 304 304 303 302 300 298 297 296 294 293 293 292 291 291 292 292 292 292 292 293 293 293 293 293 292 292 291 291 290 290 290 290 289 289 289 289
299 299 299 299 299 300 300 299 299 300 300 300 301 301 301 301 301 302 302 302 302 303 303 303 303 303 303 302 302 301 301 301 301 301 302 302 303 303 304 304 304 304 305 305 304 304 304 304 304 303 301 300 299 299 297 296 295 294 293 293 292 292 293 293 293 292 292 292 293 293 293 292 292 292 291 290 290 289 289 289 289 289 289 289 289
Wind_Speed
23 21 21 21 23 24 22 22 20 19 18 19 20 20 21 21 20 19 18 16 15 15 14 14 15 16 16 13 11 9 10 12 12 10 8 5 3 2 5 5 6 6 6 7 5 4 2 2 3 3 3 3 3 3 3 6 8 8 7 7 8 11 12 13 14 13 11 11 11 13 15 16 18 21 20 19 17 15 16 15 12 8 5 5 7
24 24 23 22 23 25 25 24 22 21 20 20 20 20 21 21 20 20 19 17 15 15 15 14 13 14 14 13 11 9 10 11 10 10 7 5 3 2 6 11 12 11 11 11 9 7 4 2 0 1 1 2 3 3 2 1 3 5 6 8 9 10 12 14 14 12 11 10 10 11 11 12 15 18 21 19 18 18 18 17 15 13 12 8 4
27 28 27 26 28 29 27 25 23 21 20 20 20 20 21 21 21 20 19 18 16 15 15 14 13 13 13 13 12 10 11 10 7 9 8 6 6 7 11 15 15 13 12 11 10 8 7 4 3 4 5 6 6 6 6 6 5 3 1 4 7 10 11 13 13 13 13 10 9 10 9 10 10 12 18 18 15 16 16 16 16 14 15 14 9
31 31 30 30 32 32 29 27 25 22 21 21 21 21 21 22 22 20 19 18 18 18 17 16 16 15 14 14 12 9 9 7 7 11 10 8 10 11 14 13 12 12 11 10 9 9 9 7 5 5 5 6 7 7 8 8 8 8 6 3 3 8 10 11 11 12 12 11 10 9 8 8 7 6 10 13 13 14 14 14 14 14 15 15 14
32 31 31 31 33 32 30 28 25 23 22 22 22 22 22 22 21 20 19 19 20 21 19 18 18 19 18 17 14 11 10 9 10 13 11 10 11 11 13 14 13 12 10 9 9 10 10 9 7 5 4 6 8 7 7 7 6 7 7 7 6 5 6 8 9 9 11 11 11 10 8 7 7 6 5 7 10 12 13 14 14 13 14 14 15
32 32 31 31 31 30 30 28 25 23 23 22 22 22 22 22 20 20 20 20 20 21 20 18 18 18 18 18 16 14 14 12 12 13 12 11 11 11 12 13 12 10 7 6 9 12 11 9 8 6 7 8 8 8 7 6 4 5 6 8 9 7 4 4 5 6 7 9 11 10 8 6 7 8 6 6 8 10 11 13 14 13 13 13 14
31 32 31 29 29 28 28 28 25 23 24 23 23 23 23 22 21 21 21 20 20 19 19 18 18 16 15 15 15 16 17 15 14 13 13 12 10 10 11 11 10 9 8 6 8 13 13 10 9 8 9 9 8 8 7 6 5 4 6 7 8 9 8 7 7 6 4 5 6 7 7 7 7 7 7 6 7 9 9 10 11 11 11 12 13
33 32 31 29 28 28 28 27 24 23 25 25 25 25 24 24 22 22 23 21 19 18 18 18 18 17 16 16 16 16 16 16 15 14 13 12 11 11 11 11 12 11 11 10 10 12 13 11 9 8 8 7 6 8 8 7 8 8 6 6 6 7 8 8 8 8 7 8 8 6 4 4 5 7 7 8 7 7 7 8 8 7 7 8 9
31 29 29 29 27 27 27 27 25 24 26 26 27 26 25 25 23 23 24 23 20 19 19 18 17 18 18 18 17 17 15 15 16 15 13 12 12 12 11 11 11 12 12 12 12 12 12 12 10 8 7 8 8 8 7 7 8 9 9 7 8 7 7 7 7 8 8 9 10 9 8 7 5 4 6 7 7 5 4 4 4 4 4 5 5
28 26 26 27 26 26 26 26 25 25 27 27 28 28 26 26 25 25 26 24 22 20 19 19 18 19 18 17 17 17 16 15 16 15 14 12 12 12 11 11 11 11 12 12 12 12 12 11 9 7 7 8 10 10 11 10 9 8 6 7 9 9 9 8 6 7 7 6 7 7 8 7 7 7 6 6 5 4 4 4 3 2 2 1 1
29 28 26 25 23 23 25 26 26 26 26 26 28 29 29 28 28 27 27 26 25 22 21 20 19 19 19 16 16 17 16 16 17 15 14 12 11 11 11 11 10 10 11 11 11 11 11 11 9 8 8 9 10 10 10 10 10 10 8 8 7 7 8 7 6 7 8 8 7 7 7 8 7 7 6 6 5 4 5 6 5 4 4 3 3
27 28 26 24 21 21 23 24 26 27 26 26 27 29 30 30 29 28 28 28 26 24 22 21 20 20 20 18 16 16 15 15 17 15 13 12 10 9 10 11 10 9 10 10 10 10 9 10 10 9 9 9 10 10 10 10 10 9 8 8 8 7 7 5 5 6 8 10 10 9 8 7 7 6 6 6 6 5 5 6 6 5 5 5 4
22 23 22 20 17 18 19 20 22 25 27 27 27 29 31 30 29 29 30 30 28 26 23 22 21 20 21 20 16 15 14 13 15 14 12 11 9 8 8 10 10 9 9 10 9 9 8 8 9 9 9 8 9 9 9 9 10 9 8 8 7 7 6 6 6 7 7 7 8 8 7 7 7 7 7 7 7 7 6 6 7 6 6 5 3
22 20 18 15 13 13 15 17 20 23 25 27 29 29 30 31 31 29 30 30 28 26 25 22 21 21 22 21 17 14 13 13 13 12 11 10 8 6 6 7 8 8 8 9 9 9 8 8 8 8 7 7 7 6 6 8 10 9 8 7 7 6 6 5 5 6 6 6 5 5 5 5 5 5 5 5 5 4 3 3 4 6 6 5 5
17 14 12 11 11 9 8 12 19 23 24 27 31 30 29 31 32 28 25 27 28 26 25 23 21 21 22 21 18 14 13 13 12 11 9 9 7 6 4 4 5 5 6 6 7 7 7 8 8 7 6 6 6 5 5 7 8 8 8 7 6 7 6 5 5 5 5 5 5 5 5 5 4 2 1 1 3 2 1 2 3 4 4 4 6
14 11 9 8 8 8 4 3 9 18 21 23 27 28 27 26 27 27 25 26 28 25 23 22 20 21 22 22 19 15 14 13 13 11 9 8 7 6 4 3 2 2 2 3 4 5 5 6 6 6 6 5 5 4 4 5 6 6 6 6 6 6 6 6 6 6 5 5 6 5 5 6 5 5 4 4 5 4 2 2 2 4 4 4 6
16 13 12 10 9 7 6 7 7 8 13 19 21 23 23 21 22 28 27 25 26 24 23 22 21 21 21 22 21 17 15 15 13 11 9 8 7 6 5 4 2 2 2 2 2 2 3 5 5 5 5 4 4 4 3 3 4 5 5 5 6 6 6 7 6 6 6 6 6 6 6 6 6 5 5 5 5 5 5 3 2 2 2 2 3
18 15 14 12 10 8 8 9 10 9 8 9 11 14 17 18 22 27 27 25 22 22 24 23 22 21 19 20 21 18 16 15 14 11 8 9 9 8 7 7 5 5 5 5 5 4 4 4 5 4 4 3 3 3 3 3 3 3 4 5 5 5 6 6 6 6 6 6 6 6 6 6 6 5 5 5 5 5 5 5 4 4 4 4 4
17 16 15 14 12 11 10 10 10 11 10 8 6 8 10 12 15 16 17 20 18 18 23 23 21 21 18 16 18 16 13 13 14 12 9 9 10 10 10 8 7 7 7 7 7 7 6 6 6 6 6 5 4 3 3 2 3 3 3 3 3 4 4 4 5 6 5 5 5 6 6 6 5 5 5 5 4 4 5 5 4 4 4 4 3
14 15 16 15 13 11 11 10 9 10 10 9 8 7 6 5 6 4 3 12 18 18 21 22 21 21 19 15 15 14 10 10 12 13 11 10 10 11 11 10 9 8 7 7 8 9 9 9 9 9 9 7 6 6 5 4 3 4 3 2 1 1 1 2 3 3 3 3 3 3 4 5 5 4 4 4 4 5 5 5 5 5 4 4 5
12 13 15 15 12 9 8 8 8 7 8 7 6 5 4 2 2 3 4 9 21 20 17 20 22 22 20 18 16 15 13 12 13 14 13 12 12 12 12 11 10 8 7 7 9 10 11 11 11 12 11 10 9 8 8 7 6 6 6 5 4 4 3 2 1 1 1 1 1 1 2 3 3 3 3 3 3 4 4 4 5 5 5 6 7
14 14 14 13 11 11 10 9 8 7 6 6 6 6 5 6 7 8 7 11 19 17 16 20 23 22 20 20 19 18 18 17 16 15 15 14 15 15 14 13 12 10 9 9 9 10 11 11 12 12 12 12 12 10 10 10 9 8 8 8 8 7 7 7 6 4 3 3 3 3 2 2 2 0 2 2 3 3 3 3 4 5 5 5 5
15 14 14 13 12 14 14 13 11 10 8 7 7 7 7 9 9 9 10 13 15 15 16 19 21 21 21 21 21 20 21 21 19 18 17 17 17 17 17 16 14 12 11 11 10 8 9 10 10 11 11 13 14 14 13 12 11 10 9 10 10 10 9 10 10 9 8 7 6 6 5 3 2 2 1 1 1 1 0 1 3 3 3 3 5
14 14 13 13 13 14 14 13 13 13 11 9 8 7 7 7 8 8 10 12 11 13 16 18 20 21 21 21 22 22 21 20 19 18 19 21 21 20 19 18 16 14 13 13 13 13 13 14 14 14 14 14 14 15 15 14 14 13 13 12 12 13 12 11 12 12 12 12 10 9 9 7 5 4 4 4 4 3 3 3 3 4 5 6 6
14 14 13 13 12 12 13 13 12 12 11 9 8 8 7 6 7 9 10 11 10 10 12 15 18 20 20 20 20 21 20 19 19 19 21 23 23 21 21 20 19 18 16 16 17 17 17 17 18 18 17 15 16 17 16 16 17 18 18 16 16 15 14 13 13 13 14 15 14 12 11 11 9 8 6 6 6 6 6 6 6 6 7 8 8
15 14 15 15 13 12 12 12 11 10 9 9 9 9 8 8 9 11 11 10 10 9 9 11 13 15 15 16 17 18 17 16 16 17 20 23 22 21 21 20 20 20 18 17 18 19 20 21 23 22 19 18 19 18 17 18 19 20 21 21 20 18 16 15 15 15 15 16 16 15 14 14 12 10 9 8 9 9 9 8 9 9 10 10 10
14 14 15 16 16 14 13 12 12 11 10 9 9 9 9 10 10 11 11 11 10 9 9 8 8 9 9 11 12 11 10 10 10 12 16 18 19 19 19 18 19 19 19 18 18 19 20 21 22 22 20 20 20 17 17 21 22 20 20 23 22 22 20 18 17 17 16 16 17 16 17 16 14 12 11 11 11 11 11 11 11 12 12 13 13
13 12 13 14 15 15 13 13 14 14 12 11 10 9 8 9 10 12 13 13 12 10 9 8 7 6 5 5 6 5 4 5 5 6 7 8 9 10 10 12 15 17 18 19 19 19 18 19 20 21 21 22 21 20 21 24 24 21 21 23 23 24 24 22 19 18 17 17 17 18 19 18 16 14 13 12 13 13 12 12 13 14 15 15 16
16 15 14 13 14 13 12 13 13 13 12 11 11 10 8 6 7 9 11 11 11 10 9 9 7 6 6 6 5 4 3 4 3 3 3 2 2 3 3 6 8 10 11 12 14 15 16 18 21 23 24 24 23 24 24 24 25 24 25 25 24 24 25 24 21 19 19 19 18 20 21 21 19 16 14 13 13 14 13 14 15 16 17 17 17
19 18 16 15 15 13 11 11 10 10 10 9 10 10 9 7 7 7 7 8 8 7 8 9 7 5 5 6 4 3 2 2 1 1 1 1 1 2 3 4 5 5 6 7 8 10 12 15 18 20 22 22 22 23 23 23 24 25 27 27 25 23 24 25 23 22 21 21 21 22 22 22 20 17 15 15 14 14 14 14 16 18 19 19 20
20 18 18 18 17 15 13 10 10 11 11 10 9 8 9 9 8 7 5 4 3 3 5 8 7 5 5 4 3 3 3 2 2 1 1 2 3 4 4 4 5 6 6 7 9 10 10 11 12 13 16 17 18 19 20 21 22 23 24 27 28 27 24 23 24 24 24 24 24 23 21 21 20 18 17 16 15 15 15 16 17 19 20 20 21
23 22 21 20 17 16 14 11 8 7 6 5 4 5 6 5 4 4 4 3 2 2 3 5 6 5 5 4 3 4 4 4 4 4 4 4 4 5 5 5 6 6 6 6 8 10 11 11 11 12 12 14 14 14 15 17 19 20 22 25 28 30 28 25 24 26 26 25 25 24 21 20 19 19 18 18 17 16 17 17 18 19 20 21 21
18 23 23 20 18 19 17 13 9 7 7 5 4 5 5 2 1 1 1 1 2 2 2 2 2 3 4 4 4 3 3 3 4 5 6 6 7 7 7 8 9 9 9 8 8 8 10 12 14 14 14 14 13 13 13 14 15 17 20 22 24 28 29 26 24 26 28 27 26 24 21 19 19 19 19 19 18 18 19 19 20 20 20 20 21
10 18 21 21 22 22 19 14 10 9 9 6 2 1 2 2 1 1 1 2 2 1 2 1 1 0 1 2 2 2 3 4 5 5 6 6 6 7 8 9 10 10 11 11 11 10 10 11 13 15 16 16 16 15 15 15 15 15 17 19 21 23 24 22 23 26 27 26 25 23 21 20 20 19 18 18 19 20 21 22 21 21 21 21 23
15 19 20 19 19 17 14 12 10 9 7 3 2 1 2 1 2 2 3 3 2 1 2 2 2 3 3 3 3 2 3 4 5 6 6 6 6 6 6 7 8 9 10 11 12 13 13 13 14 14 16 17 17 17 17 16 16 16 17 17 19 21 21 20 22 24 25 24 23 22 21 20 19 19 18 19 19 20 21 21 21 22 23 24 25
15 15 15 15 14 11 8 7 6 7 7 2 3 2 2 4 4 4 3 4 3 4 4 3 3 5 4 4 4 3 4 5 6 7 8 8 8 8 7 8 9 10 11 12 12 13 14 14 15 15 16 17 18 18 19 18 17 18 18 17 18 21 22 21 21 23 24 24 23 22 20 19 18 19 19 19 20 22 23 23 23 24 26 26 27
10 10 9 7 5 5 4 2 2 3 3 4 2 2 2 3 5 4 5 6 6 6 6 5 5 5 5 5 6 6 6 6 7 7 8 8 8 9 9 10 11 11 12 13 13 14 15 15 16 16 17 18 19 20 20 19 19 19 20 20 20 21 22 23 23 24 23 22 20 20 19 19 20 20 20 20 22 23 24 24 25 27 27 28 28
9 8 9 9 6 2 3 3 3 3 0 4 5 6 6 6 6 7 8 8 8 8 9 9 8 8 8 8 9 9 9 9 9 9 10 11 11 12 12 13 13 13 13 14 14 15 17 18 18 18 18 19 20 20 21 20 20 20 20 20 21 22 23 23 23 22 21 19 19 20 21 21 21 20 19 20 21 23 24 26 27 27 28 29 30
12 10 7 8 7 3 1 2 4 3 1 2 4 6 9 11 11 10 10 11 11 11 12 12 12 12 11 11 11 12 13 13 13 13 14 14 15 16 16 15 15 15 15 16 17 18 19 19 19 19 20 20 20 19 20 20 20 20 20 20 21 22 22 22 21 20 20 20 21 21 21 20 19 18 18 20 22 24 25 26 27 28 29 30 31
13 13 9 6 5 5 4 3 4 6 6 6 7 8 9 11 11 11 12 13 13 13 13 13 14 14 13 13 14 14 14 13 13 14 14 14 15 15 16 16 15 15 15 16 18 19 19 19 19 18 18 19 19 18 18 18 18 19 18 18 20 22 22 21 20 19 19 19 20 20 19 18 18 18 20 22 24 25 25 26 27 28 30 31 32
13 13 13 10 7 6 7 5 3 5 8 9 10 11 12 13 13 14 14 14 14 14 13 14 14 15 15 16 15 15 13 12 13 14 15 16 15 15 16 17 16 15 15 17 19 19 20 19 20 20 19 19 18 17 16 15 15 15 16 17 19 20 20 19 18 17 18 18 19 20 20 20 20 21 23 25 25 25 25 26 28 29 31 32 33
13 14 16 16 13 12 11 9 8 9 10 11 11 13 14 15 16 16 17 16 17 16 15 16 16 16 16 16 16 16 16 16 17 18 18 18 17 17 18 18 17 17 18 20 20 20 20 20 20 21 20 19 17 15 14 13 12 12 13 15 17 17 17 17 17 17 18 18 19 20 21 21 22 24 24 24 24 24 26 27 28 29 30 30 29
17 16 17 18 17 15 14 15 15 15 16 16 16 17 18 18 19 17 16 15 15 16 16 17 18 18 18 18 18 18 18 18 18 17 17 18 17 16 17 19 19 20 20 21 22 21 21 22 22 21 19 17 15 13 11 10 10 10 11 12 14 14 16 18 18 18 18 17 19 21 22 23 23 23 22 22 22 24 25 25 26 25 24 24 23
19 19 19 20 20 18 18 19 19 19 18 17 18 20 20 19 18 16 16 16 16 17 18 19 19 19 19 19 18 16 15 15 14 13 14 16 15 15 16 17 18 20 22 22 23 23 23 23 23 21 18 15 13 11 10 9 10 10 11 12 14 15 17 18 18 18 18 18 20 21 22 21 20 19 19 20 20 21 20 20 20 19 19 19 19
22 22 22 22 22 22 22 22 20 20 18 15 15 18 17 15 13 12 13 14 15 17 18 18 18 19 19 19 19 17 16 16 17 17 18 19 18 18 18 17 16 19 22 23 22 23 22 22 21 19 16 14 12 10 10 10 10 12 13 14 15 15 15 16 17 18 18 19 18 17 16 16 16 17 17 17 17 16 16 16 17 17 17 18 19
21 22 22 23 23 23 23 23 22 22 21 18 17 18 18 17 16 15 14 15 16 18 19 19 19 21 22 23 23 23 23 23 23 23 23 22 20 19 20 19 17 18 20 21 22 22 21 20 20 18 15 13 11 10 10 10 10 11 13 13 14 14 15 16 17 17 16 14 13 12 13 14 15 15 14 14 14 15 15 15 16 16 17 19 21
22 22 22 22 21 22 23 21 19 19 17 15 14 16 17 19 21 21 20 20 19 19 20 20 22 23 25 26 26 26 26 25 25 24 23 21 20 19 19 19 19 19 19 20 21 21 21 21 20 17 13 11 9 9 10 10 10 11 13 13 14 14 14 14 13 12 10 9 10 12 13 13 12 11 11 12 14 15 16 16 17 18 20 22 22
26 26 25 23 22 21 20 19 17 16 14 13 14 16 19 22 24 24 22 20 20 21 23 24 26 28 29 30 29 28 27 26 26 26 24 23 23 23 22 22 22 22 22 22 22 23 24 22 18 14 11 9 9 11 12 12 11 11 11 11 10 9 8 7 7 8 9 10 11 11 10 9 9 10 12 14 15 17 18 18 18 20 21 21 19
27 28 27 26 25 23 21 19 16 15 16 18 18 18 20 22 24 23 21 21 22 25 27 28 30 31 31 31 30 29 29 30 31 31 31 30 29 27 26 25 26 25 25 25 23 21 20 17 14 12 12 11 12 14 14 12 10 7 6 5 4 4 5 6 6 7 8 8 8 7 7 8 10 13 15 17 18 18 18 18 18 19 20 20 20
26 28 28 28 27 26 25 23 19 16 16 18 17 16 16 18 20 21 22 23 25 27 28 30 30 30 30 30 30 30 31 32 32 32 30 30 29 27 25 23 23 23 22 21 18 16 14 13 13 12 10 9 11 13 12 9 6 3 2 3 3 4 4 3 4 5 5 4 3 5 7 11 14 17 18 19 18 18 18 18 19 19 19 20 21
23 26 28 29 27 25 26 26 25 21 18 17 16 16 16 17 19 21 21 22 24 25 26 27 28 28 29 30 31 32 31 30 31 31 29 27 24 22 21 21 21 20 19 18 16 14 12 11 12 12 12 11 11 11 9 5 3 1 2 2 3 2 1 2 5 7 6 5 5 7 10 14 16 18 19 18 18 18 17 17 18 18 18 20 22
Wind_Direction
169 167 158 160 164 162 174 190 191 195 199 193 185 180 177 173 166 163 161 161 162 161 156 144 135 134 137 147 148 143 160 169 170 175 186 208 226 170 163 151 149 164 153 147 138 117 140 255 265 269 269 285 314 307 275 251 242 243 237 230 223 225 230 227 227 232 227 219 221 225 230 233 231 228 225 222 220 219 218 214 207 207 227 284 279
167 166 160 165 166 166 178 188 190 194 194 190 185 180 181 178 172 166 162 162 164 160 149 137 133 135 141 147 142 137 152 165 174 184 196 195 171 133 116 99 98 114 121 129 136 130 133 164 292 353 82 97 41 40 36 303 245 251 255 240 225 223 225 226 226 224 223 221 218 222 231 238 235 230 225 224 225 227 231 228 222 218 217 232 265
168 167 163 167 168 171 181 185 186 192 191 189 186 185 188 185 178 171 166 167 162 152 143 136 135 138 145 148 144 140 145 152 157 160 168 154 131 121 113 101 97 110 121 129 140 143 137 125 102 96 105 104 84 75 81 84 85 80 324 245 226 220 217 220 221 217 218 213 206 216 231 241 244 233 226 228 225 220 226 228 223 223 219 221 222
167 168 169 171 172 175 179 181 184 189 189 188 190 193 193 190 184 174 170 171 159 152 153 154 151 149 154 156 152 146 144 148 135 128 126 114 115 120 121 116 113 124 136 142 152 163 155 144 128 118 117 110 104 97 95 97 93 90 84 84 188 212 213 214 218 219 220 212 207 218 226 230 240 236 226 230 228 221 225 224 219 218 219 224 226
169 171 176 176 177 179 180 182 184 187 188 188 194 200 198 194 186 177 176 171 161 161 165 166 163 161 162 162 160 159 157 156 137 124 116 110 117 125 131 137 137 140 150 160 173 180 171 163 153 140 148 129 119 123 121 115 114 107 95 87 110 170 199 206 212 216 218 215 210 212 210 213 223 217 204 215 221 225 234 232 222 217 219 226 232
173 175 180 180 182 184 183 186 188 191 193 190 195 203 202 198 188 180 180 174 171 172 171 173 170 167 167 167 170 167 160 151 137 127 121 116 114 117 128 140 149 158 164 157 167 174 171 165 156 152 169 158 137 137 136 131 141 131 115 105 103 107 123 161 180 189 206 209 206 209 210 210 215 210 200 201 206 213 225 227 224 223 225 229 233
175 177 181 182 185 187 188 192 196 197 196 193 196 203 206 202 192 186 185 181 180 178 175 176 175 171 168 165 166 162 154 146 136 128 121 116 112 113 118 121 129 143 144 124 137 159 168 160 142 138 156 168 176 183 176 171 185 167 136 130 124 117 112 115 122 124 144 174 184 206 221 222 221 215 205 199 201 208 214 217 218 219 224 228 232
176 176 181 184 187 191 193 196 199 200 196 195 198 203 208 207 198 192 190 188 187 182 179 178 173 169 164 160 159 156 151 143 138 133 126 126 121 113 109 105 106 112 115 108 110 138 158 153 134 130 132 132 160 190 192 190 194 189 172 155 145 137 133 133 127 116 116 121 118 126 157 189 213 220 215 203 197 207 216 218 216 215 217 221 226
178 178 180 187 192 196 200 200 200 201 198 198 200 203 209 210 204 198 196 195 193 187 182 179 174 168 162 156 151 151 152 147 143 139 135 132 122 111 107 102 100 102 105 107 105 116 135 141 139 137 121 105 110 124 129 136 163 185 196 189 170 153 147 152 145 134 137 134 125 126 127 119 129 171 199 199 190 194 207 207 212 222 231 234 234
178 183 185 191 196 200 205 204 200 200 201 202 203 204 207 210 208 204 202 200 196 191 187 181 175 170 164 154 147 152 161 157 149 145 141 134 119 115 114 109 105 105 106 108 108 109 116 126 134 129 112 107 107 103 101 104 117 137 158 175 179 176 172 174 172 167 166 153 142 143 143 137 132 138 150 161 164 170 171 159 155 170 196 228 244
181 184 188 191 197 202 205 205 202 200 203 207 208 208 208 211 213 210 208 207 200 193 191 184 178 174 164 154 151 157 165 164 157 152 148 138 125 122 121 115 108 105 106 107 106 108 111 115 118 114 108 107 105 101 98 96 94 97 99 110 135 157 170 181 184 181 177 168 163 157 149 149 148 147 148 150 157 171 174 169 162 149 144 132 111
181 183 186 188 194 202 204 206 205 202 201 203 207 209 209 212 217 217 213 210 204 197 193 187 181 175 165 160 159 161 168 166 159 157 152 145 137 129 123 117 113 108 107 108 106 105 107 111 110 106 103 100 100 99 97 96 90 85 86 91 98 109 121 129 125 138 158 167 174 178 170 163 160 161 169 180 199 221 222 210 198 174 160 151 136
151 167 178 182 188 199 204 208 209 205 202 202 204 206 207 211 217 221 220 216 208 199 196 192 184 174 167 167 166 166 173 166 158 161 156 151 149 138 127 121 118 111 107 107 107 106 104 106 105 100 98 94 92 91 92 98 94 85 85 88 90 96 97 100 103 109 127 150 169 180 179 181 189 194 202 213 223 236 240 228 218 209 196 182 171
116 135 151 161 169 186 204 215 217 213 210 211 212 209 208 210 212 216 220 218 213 203 197 193 187 176 169 173 173 169 174 168 161 165 159 155 156 141 128 122 116 108 106 106 103 105 105 101 99 95 94 93 90 88 91 100 100 92 89 89 91 96 96 95 98 102 110 124 140 148 144 157 186 204 219 225 216 219 220 198 201 215 221 219 203
106 118 131 151 165 169 191 217 219 215 215 216 215 212 210 211 211 213 215 213 214 211 201 193 187 178 172 177 181 175 175 175 172 173 168 163 158 143 129 114 104 94 96 99 94 95 93 91 93 92 90 90 89 87 79 86 95 94 92 94 95 94 97 101 102 103 109 111 114 125 127 124 125 141 160 133 128 146 182 163 159 174 197 210 192
100 104 107 127 155 158 154 186 205 211 215 214 214 216 218 220 218 217 216 211 208 202 194 191 188 182 177 180 187 185 179 182 184 185 179 173 164 149 142 124 104 71 62 72 73 69 66 70 79 88 90 86 84 86 77 73 83 91 93 92 93 95 98 101 99 101 103 103 108 116 119 108 96 93 86 81 83 71 76 132 163 160 159 165 177
94 96 95 98 117 135 125 103 120 179 209 217 222 229 233 235 228 218 211 207 205 195 187 189 188 185 182 184 191 192 186 187 190 187 176 176 177 163 165 177 193 247 298 329 356 12 22 34 44 61 74 72 71 78 79 71 76 92 97 91 91 98 99 95 92 95 93 88 96 107 108 101 93 90 85 78 78 72 68 63 55 95 104 104 140
102 103 104 105 112 124 134 129 123 132 167 203 221 230 230 232 233 225 209 200 203 196 189 190 187 186 189 192 196 198 193 190 192 189 176 177 186 184 187 196 205 228 261 284 295 309 326 344 355 6 23 31 35 39 41 43 47 71 92 97 96 87 84 88 88 90 86 77 81 87 87 86 84 84 83 78 78 80 75 66 57 51 45 46 47
109 111 116 117 119 130 144 153 152 147 149 152 164 193 211 221 233 231 205 193 194 189 187 192 188 183 187 198 205 204 197 188 185 189 190 189 191 194 199 204 207 220 243 269 282 292 299 307 318 325 334 340 340 340 338 350 358 11 43 76 96 87 84 95 95 88 84 77 78 82 86 88 88 90 96 96 95 93 89 86 80 67 56 50 40
117 120 123 123 129 140 143 151 161 162 160 154 153 169 187 214 237 259 215 193 190 184 187 193 192 186 183 192 207 209 199 185 179 187 198 204 203 202 206 208 208 219 240 259 273 285 293 298 302 307 311 311 312 313 307 305 300 299 316 328 347 34 42 77 94 94 91 83 73 84 96 92 85 82 85 94 104 105 101 99 91 76 61 47 29
124 130 129 125 124 129 135 148 157 157 163 162 150 148 145 114 112 52 42 181 186 184 190 195 192 189 184 186 199 206 203 195 189 193 200 204 210 211 209 207 207 217 236 253 268 281 289 294 297 301 304 302 301 302 299 297 288 280 282 281 280 281 294 314 337 171 157 119 85 119 119 90 73 61 56 58 72 80 77 75 73 58 38 23 13
120 122 126 124 113 107 111 121 133 141 147 147 129 116 103 78 82 84 95 160 177 180 188 192 188 187 186 188 196 203 205 203 199 200 202 204 213 217 217 218 216 215 226 242 261 278 285 288 294 301 303 300 299 298 294 294 292 284 277 275 272 267 273 284 284 273 268 263 259 243 202 146 138 338 21 20 22 42 47 38 39 37 26 5 348
123 124 127 129 120 113 110 106 113 123 126 130 133 122 101 83 79 89 114 147 165 170 178 185 187 189 190 190 195 202 206 206 204 204 208 212 218 220 223 231 232 226 227 234 243 256 262 262 269 283 288 285 289 294 292 291 296 294 287 279 274 270 268 272 277 277 272 268 266 259 252 233 218 242 275 309 327 1 31 358 12 10 349 329 326
124 126 125 125 124 122 119 115 112 114 118 122 129 135 127 107 95 100 118 136 151 165 179 187 186 189 192 193 197 203 207 211 215 218 220 221 222 222 225 232 233 228 223 221 225 234 241 247 259 274 277 265 261 267 271 273 279 286 292 289 281 275 270 266 270 272 270 269 268 259 259 264 263 260 260 273 283 281 286 305 320 325 317 314 321
131 131 127 124 121 117 120 125 125 124 127 125 120 126 130 120 115 120 126 131 132 146 172 187 188 192 198 201 205 210 215 223 230 232 228 226 226 225 226 229 233 235 230 223 226 234 239 246 258 271 274 262 249 248 255 264 267 269 276 284 284 278 274 270 267 266 266 268 268 262 258 261 265 266 268 278 287 289 293 300 301 301 302 305 310
133 134 134 131 126 121 119 120 124 128 128 125 126 131 130 122 117 119 124 127 128 137 157 177 189 197 204 210 215 222 229 235 238 235 231 231 233 233 235 241 250 254 251 244 242 244 247 252 260 267 268 260 254 257 267 274 273 267 265 269 274 276 275 273 269 266 264 264 264 262 258 258 263 270 276 281 288 292 293 292 291 293 297 300 304
132 125 126 127 126 128 127 119 117 117 112 109 114 123 132 136 132 131 132 128 127 138 148 156 173 189 200 208 212 217 228 236 236 231 229 233 236 239 244 252 258 260 258 257 256 256 257 258 261 264 262 256 254 260 267 268 269 273 270 264 264 268 271 271 268 265 262 259 258 256 253 256 263 274 282 287 291 294 294 291 289 294 298 301 303
147 138 134 128 120 122 126 127 127 123 119 116 112 112 123 137 141 142 141 135 130 132 135 134 139 146 148 156 166 171 187 209 216 216 219 227 233 237 243 247 251 254 255 260 264 264 265 265 262 262 260 257 254 254 257 257 258 267 272 263 256 257 262 265 265 262 257 252 250 248 248 251 259 272 282 289 294 294 291 290 291 294 297 298 301
163 160 160 152 138 129 120 118 124 129 131 131 129 128 128 128 131 135 138 140 139 137 136 135 137 141 135 125 129 142 146 147 151 156 164 168 197 221 232 238 247 256 261 266 269 266 265 264 263 261 259 258 257 256 257 257 257 260 262 257 251 250 254 257 259 257 252 246 244 244 247 251 260 270 278 285 291 291 290 293 293 293 294 296 298
162 162 164 162 157 153 141 125 121 129 137 141 144 146 142 129 117 118 130 140 146 149 145 143 150 166 164 153 155 167 146 127 142 160 197 224 244 249 259 264 268 280 292 295 288 279 272 266 263 259 257 257 258 258 258 258 259 260 258 252 248 248 248 251 253 252 247 244 243 245 250 257 264 270 277 284 288 288 289 292 291 292 294 297 298
160 167 167 162 161 160 158 152 138 133 133 133 143 154 152 148 144 145 156 165 176 192 167 160 170 174 156 143 153 167 157 155 177 204 252 268 271 268 270 275 277 285 299 306 306 302 295 284 274 266 261 258 258 260 261 260 259 260 257 250 247 247 246 245 249 251 247 244 244 247 254 261 264 268 275 282 284 283 286 288 289 292 295 296 297
165 167 164 162 166 164 162 165 159 152 147 134 154 184 180 180 182 183 193 194 192 191 165 167 177 167 151 154 185 193 191 197 205 209 218 231 248 260 268 276 281 287 292 296 302 304 302 299 292 284 275 267 263 260 262 262 259 258 257 253 251 251 249 245 247 249 247 244 245 248 254 259 261 266 276 280 280 282 286 288 290 294 296 296 296
163 165 160 153 154 150 150 157 152 144 145 128 127 169 184 227 309 98 142 139 110 82 77 114 151 155 165 188 206 202 197 210 225 234 234 234 239 248 256 262 267 274 279 282 291 298 300 299 296 293 288 283 279 273 267 264 261 259 261 261 260 259 256 251 247 244 242 243 246 248 250 254 258 266 275 280 282 286 291 294 295 296 296 295 295
130 150 150 147 149 147 146 152 151 143 141 127 99 201 224 285 315 128 232 216 166 80 26 29 2 296 224 236 251 237 218 225 236 243 246 249 253 259 262 263 265 269 271 272 275 277 281 285 289 291 291 290 289 286 280 270 264 266 270 269 266 265 259 249 242 240 240 242 243 243 246 252 259 265 272 278 283 289 294 295 296 296 295 295 296
103 119 124 129 140 148 152 154 156 167 166 126 25 266 213 215 187 206 257 257 223 241 255 245 270 282 277 287 302 295 260 249 245 242 247 257 266 273 278 278 281 285 285 280 275 271 269 270 274 280 284 284 283 283 282 275 267 269 274 272 268 265 257 243 235 236 240 241 239 239 244 252 258 262 269 277 282 287 291 291 291 292 292 292 293
89 103 114 116 116 121 134 146 155 179 192 172 71 102 184 216 207 211 268 288 277 264 263 259 265 275 281 290 295 289 276 270 268 270 274 276 279 285 285 279 279 283 287 288 287 283 277 270 267 268 272 275 276 277 279 279 273 270 270 271 269 265 257 247 239 234 232 233 235 240 247 253 258 263 271 277 281 285 287 288 288 289 290 291 293
55 63 80 87 88 102 118 137 130 143 203 238 274 346 312 247 227 233 259 266 262 268 275 265 252 256 261 262 263 261 261 266 273 280 284 284 287 288 283 279 277 277 278 280 282 282 279 273 269 266 265 268 272 273 276 278 275 270 269 269 267 260 252 247 242 235 230 230 235 244 252 259 264 270 276 279 282 285 287 288 288 289 291 293 296
36 41 45 36 19 44 128 142 141 117 129 264 280 306 296 268 262 267 266 263 261 263 262 252 247 253 255 254 255 252 250 253 259 265 268 269 273 274 273 273 273 273 274 273 271 269 267 267 266 264 263 266 270 272 272 273 272 270 269 269 265 257 249 242 237 235 236 240 247 253 258 262 267 270 274 279 283 285 286 286 288 289 291 293 296
26 23 28 34 23 14 126 180 204 211 281 312 300 297 288 283 287 283 273 268 263 259 260 259 260 263 263 261 259 259 262 265 266 267 268 269 273 274 273 271 271 271 269 266 265 264 264 266 266 265 264 267 271 272 269 267 268 267 266 266 262 255 247 241 236 237 243 251 256 259 259 261 262 264 269 276 280 281 282 283 285 287 289 291 294
350 356 358 9 8 354 341 316 256 251 275 289 288 290 289 287 287 279 273 274 273 270 272 270 268 269 268 266 267 271 276 276 272 269 268 271 277 277 274 274 277 276 268 262 262 262 264 267 270 270 270 270 271 272 267 263 262 263 263 263 257 251 247 244 242 243 249 255 258 258 255 253 255 260 267 273 275 275 278 280 283 286 288 290 292
324 327 330 330 325 324 325 322 292 276 281 280 279 285 286 279 273 270 271 275 275 272 271 269 269 271 271 272 274 274 271 266 264 264 262 262 267 271 271 273 272 267 260 258 260 263 265 268 271 273 274 274 274 273 269 263 260 258 258 256 249 245 244 246 248 251 253 250 248 249 248 251 258 265 270 273 274 277 279 282 284 287 289 291 293
321 314 315 314 308 306 305 302 296 286 283 280 279 283 286 283 276 272 271 273 271 269 269 270 271 273 275 277 275 268 264 265 267 267 265 263 263 264 267 269 266 260 257 257 260 264 267 269 271 273 275 276 277 275 269 263 258 254 252 250 246 245 249 252 253 251 248 244 245 250 254 259 265 270 273 277 281 283 284 286 287 289 290 291 293
314 308 306 303 300 298 296 296 295 287 281 279 278 279 281 284 284 282 279 277 272 268 270 272 274 276 279 280 279 276 276 277 276 273 270 266 265 264 266 268 265 259 255 256 259 261 264 267 270 273 275 276 277 272 261 252 248 248 250 252 252 254 257 257 253 249 248 249 253 257 262 267 272 276 280 284 285 286 287 289 290 292 294 296 298
305 302 302 300 297 292 289 288 288 290 289 282 275 276 278 279 282 282 279 278 276 273 274 276 277 281 282 281 280 280 278 273 269 266 264 262 263 264 266 270 268 257 252 254 257 259 262 265 268 271 274 273 269 261 253 251 254 254 253 253 252 251 252 254 253 253 254 257 259 263 269 274 279 284 287 288 288 290 291 294 297 300 302 303 304
298 296 298 299 296 293 290 284 280 285 293 287 271 270 273 276 281 280 276 275 274 274 276 278 279 281 281 277 273 270 266 264 263 264 266 266 266 263 263 269 271 258 251 253 255 256 258 261 264 269 270 265 259 257 258 260 261 256 250 246 244 245 247 251 253 255 257 259 264 270 275 280 286 290 292 293 293 293 294 297 301 304 305 306 306
300 299 299 299 297 294 291 288 282 280 282 283 275 268 267 271 276 276 273 272 273 276 279 281 280 278 276 274 272 269 267 268 269 270 272 272 271 266 263 266 267 257 248 247 249 250 254 260 264 265 260 254 255 259 254 248 246 244 239 235 233 236 241 247 251 255 259 263 271 277 283 290 295 298 298 296 295 296 298 299 302 303 304 304 303
298 300 301 302 304 302 295 289 285 278 271 269 268 265 265 269 272 274 276 278 280 283 282 278 276 274 271 272 274 273 272 272 271 270 270 269 267 264 260 259 258 253 248 246 248 253 259 262 261 256 251 250 254 247 231 224 230 231 225 225 231 236 242 249 255 261 268 278 288 294 297 300 300 299 298 298 300 302 301 300 298 297 296 296 298
291 293 295 297 303 308 303 293 286 282 275 270 269 267 267 270 274 277 280 281 281 281 278 274 273 273 273 274 273 271 268 268 268 267 265 263 262 259 257 255 254 254 255 257 260 262 261 259 256 254 253 250 238 222 210 208 215 220 219 223 232 241 253 268 281 292 300 303 303 301 296 294 296 302 306 305 303 300 298 297 296 296 298 303 307
289 289 291 291 292 299 303 301 295 289 285 287 288 283 275 274 275 277 279 278 277 275 273 272 273 274 273 271 269 267 266 268 270 270 267 265 263 261 260 257 256 257 261 263 264 260 255 254 256 256 256 247 225 207 198 195 196 202 213 227 246 268 285 299 307 312 314 309 298 289 290 303 316 320 318 312 307 305 305 307 307 308 310 313 315
289 287 286 284 284 288 292 293 291 289 287 287 288 288 283 279 278 278 277 276 275 273 272 274 274 273 271 268 268 270 272 271 270 268 266 264 262 260 258 257 256 258 259 256 253 250 251 257 256 245 237 233 214 193 180 176 173 177 231 268 280 277 278 296 322 337 344 336 314 317 327 331 329 325 320 316 313 313 314 313 312 312 313 314 314
289 286 284 283 283 286 287 284 281 281 279 275 275 279 280 277 273 271 271 273 275 275 275 276 276 275 276 276 276 275 273 268 263 260 259 259 257 254 253 252 251 253 252 247 247 247 245 245 238 214 188 178 182 176 163 158 162 177 221 231 216 202 194 16 12 14 18 11 357 347 338 331 327 323 319 318 318 319 318 315 315 316 317 317 317